[[{"header":{"parameterUnit":"m.s-1","parameterCategory":1,"la1":30.2991,"la2":30.254,"lo1":-89.0895,"lo2":-89.0444,"dy":0.0017,"dx":0.0017,"nx":28,"ny":28,"refTime":"2024-03-20T21:00:00:Z","depth":0,"parameterNumber":2,"parameterNumberName":"U-component_of_WINDS"},"data":[0,0,0,0,0,0,0,0,0,0,0,0,0,0,0,0,0,0,0,0,0,0,0,0,0,0,0,0,0,0,0,0,0,0,0,0,0,0,0,0,0,0,0,0,0,0,0,0,0,0,0,0,0,0,0,0,0,0,1.1223,1.1223,0,1.1258,1.1258,1.1258,1.1272,1.1272,1.1272,1.1272,1.1306,1.1307,1.1308,0,0,0,0,0,0,0,0,0,0,0,0,0,1.1169,1.117,1.1223,1.1223,1.1224,1.1258,1.1258,1.1259,1.1272,1.1272,1.1272,1.1272,1.1306,1.1307,1.1308,0,0,0,0,0,0,0,0,0,0,0,0,0,1.1197,1.117,1.1223,1.1235,1.1236,1.1258,1.1258,1.1259,1.1272,1.1272,1.1272,1.1272,1.1306,1.1307,1.1309,1.1321,0,0,1.1313,1.1314,0,0,0,0,0,0,0,0,1.1195,1.1199,1.1232,1.1234,1.1235,1.126,1.1252,1.1279,1.1272,1.1258,1.1272,1.1271,1.1291,1.1294,1.1301,1.1322,1.1324,1.1313,1.1314,1.1315,1.1315,0,0,0,0,0,0,0,1.1193,1.1198,1.1237,1.1233,1.1235,1.1238,1.1242,1.1257,1.1275,1.1259,1.126,1.1264,1.1292,1.1299,1.1302,1.1324,1.1313,1.1315,1.1316,1.1316,1.136,1.1361,0,0,0,0,0,0,1.119,1.1196,1.1236,1.1238,1.1215,1.1239,1.1244,1.1252,1.1275,1.1278,1.1265,1.1265,1.1297,1.13,1.1303,1.132,1.1315,1.1316,1.1317,1.136,1.136,1.1361,0,0,0,0,0,0,1.1188,1.1193,1.1234,1.1217,1.1223,1.1241,1.125,1.1253,1.126,1.1279,1.1282,1.1269,1.1297,1.1301,1.1317,1.1321,1.1317,1.1318,1.136,1.136,1.136,1.1353,0,0,0,0,0,0,1.1187,1.1192,1.1197,1.1217,1.1224,1.1247,1.1251,1.1254,1.1263,1.1264,1.1283,1.1286,1.1297,1.1314,1.1318,1.1323,1.132,1.1359,1.136,1.136,1.1353,1.1353,1.1354,0,0,0,0,0,1.1185,1.1193,1.1197,1.1202,1.1229,1.1247,1.1251,1.1263,1.1263,1.1268,1.1281,1.1286,1.132,1.1316,1.132,1.1326,1.1359,1.136,1.136,1.1353,1.1353,1.1354,0,0,0,0,0,0,1.1172,1.1196,1.1201,1.1215,1.1229,1.125,1.1256,1.1263,1.1276,1.1277,1.1291,1.1295,1.131,1.132,1.1315,1.134,1.134,1.1342,1.1333,1.1334,1.1334,1.1331,1.1321,0,0,0,0,0,1.1171,1.1184,1.1204,1.1215,1.1222,1.1238,1.1246,1.1254,1.1269,1.1275,1.1288,1.1302,1.1317,1.1326,1.1339,1.1355,1.136,1.1361,1.1361,1.1361,1.1362,1.1373,1.1374,1.1363,1.1362,1.1362,0,0,1.1169,1.1183,1.119,1.1213,1.1224,1.1238,1.1243,1.1256,1.1266,1.1277,1.1293,1.1304,1.1321,1.1337,1.1345,1.1345,1.1367,1.1362,1.1362,1.1363,1.1373,1.1375,1.1375,1.1363,1.1363,1.1363,0,0,1.1172,1.1184,1.1195,1.1207,1.1226,1.1237,1.1239,1.1259,1.1267,1.1284,1.1293,1.1305,1.1329,1.1341,1.135,1.136,1.1366,1.1365,1.1365,1.1375,1.1376,1.1377,1.1382,1.1383,1.1366,1.1366,1.1366,0,1.1166,1.1187,1.12,1.1214,1.1224,1.1235,1.1248,1.1259,1.128,1.1287,1.1288,1.1319,1.1331,1.1351,1.1354,1.1361,1.1365,1.1362,1.1375,1.1376,1.1377,1.1382,1.1383,1.1365,1.1365,1.1365,1.1365,0,1.118,1.1194,1.1201,1.1223,1.1234,1.1247,1.1263,1.1272,1.128,1.1291,1.1309,1.1324,1.1342,1.1348,1.1355,1.137,1.137,1.1372,1.1373,1.1378,1.1382,1.1384,1.1365,1.1365,1.1365,1.1365,0,0,1.1174,1.1205,1.1207,1.1218,1.124,1.1251,1.1265,1.1284,1.1292,1.1307,1.132,1.1341,1.1344,1.1355,1.1364,1.1373,1.1381,1.1375,1.1375,1.1376,1.14,1.1398,1.14,1.1386,1.1386,1.1386,1.1399,0,1.1181,1.1206,1.122,1.124,1.1254,1.1266,1.1278,1.1293,1.1305,1.1319,1.1331,1.1346,1.1349,1.1356,1.1365,1.1378,1.1386,1.1378,1.1398,1.1399,1.1394,1.1402,1.1399,1.141,1.1401,1.1401,1.1401,0,1.1191,1.1207,1.1229,1.1251,1.1258,1.1268,1.1287,1.13,1.1318,1.1326,1.1339,1.1348,1.1364,1.1364,1.1387,1.138,1.139,1.1398,1.1399,1.1401,1.14,1.1405,1.1414,1.1416,1.1404,1.1404,1.1403,0,1.1186,1.1213,1.123,1.1239,1.1265,1.1273,1.1284,1.1302,1.1313,1.1329,1.1337,1.1355,1.1365,1.1379,1.1393,1.1391,1.1415,1.1415,1.1422,1.1422,1.1427,1.1426,1.1438,1.1432,1.1432,1.1432,1.1432,0,1.1192,1.1205,1.1228,1.1239,1.1254,1.127,1.1285,1.1297,1.1314,1.1327,1.1339,1.1351,1.1369,1.1384,1.1395,1.1413,1.1417,1.1425,1.1427,1.1424,1.1423,1.143,1.143,1.1432,1.1432,1.1432,1.1432,0,1.1188,1.1205,1.1224,1.1248,1.1254,1.1265,1.1285,1.1296,1.1309,1.1326,1.1331,1.1351,1.1369,1.1385,1.1409,1.1417,1.1436,1.1439,1.143,1.1431,1.1438,1.1437,1.1454,1.1458,1.1449,1.145,1.145,0,1.1191,1.1202,1.1227,1.1237,1.1249,1.1265,1.1276,1.1293,1.1305,1.1327,1.1336,1.1355,1.1372,1.1401,1.1418,1.1436,1.1441,1.1445,1.1443,1.144,1.1442,1.1441,1.1443,1.1445,1.1445,1.1445,1.1445,0,1.1194,1.1203,1.1219,1.1239,1.1253,1.1269,1.1285,1.1293,1.1313,1.1326,1.1345,1.1358,1.1384,1.1403,1.1424,1.1436,1.1445,1.1446,1.1449,1.1445,1.144,1.1444,1.1431,1.1445,1.1445,1.1445,1.1445,1.1445,1.1195,1.1205,1.1225,1.1244,1.1259,1.1274,1.1286,1.1301,1.1318,1.134,1.1349,1.137,1.1389,1.1419,1.1431,1.1447,1.1449,1.1452,1.1453,1.1454,1.1454,1.1437,1.1451,1.1451,1.1451,1.1451,1.1451,0,1.1199,1.1213,1.123,1.1254,1.1269,1.1276,1.1295,1.1307,1.1325,1.1343,1.136,1.1383,1.1403,1.1422,1.1442,1.1452,1.1457,1.1457,1.1457,1.146,1.1451,1.1447,1.1453,1.1453,1.1453,1.1453,1.1453,1.1453,1.1203,1.1222,1.1233,1.126,1.1274,1.1294,1.1305,1.132,1.1335,1.1361,1.1377,1.139,1.1409,1.1431,1.145,1.1455,1.1463,1.1462,1.1468,1.146,1.146,1.1459,1.1456,1.1464,1.1464,1.1476,1.1476,1.1476]},{"header":{"parameterUnit":"m.s-1","parameterCategory":1,"la1":30.2991,"la2":30.254,"lo1":-89.0895,"lo2":-89.0444,"dy":0.0017,"dx":0.0017,"nx":28,"ny":28,"refTime":"2024-03-20T21:00:00:Z","depth":0,"parameterNumber":3,"parameterNumberName":"V-component_of_WINDS"},"data":[0,0,0,0,0,0,0,0,0,0,0,0,0,0,0,0,0,0,0,0,0,0,0,0,0,0,0,0,0,0,0,0,0,0,0,0,0,0,0,0,0,0,0,0,0,0,0,0,0,0,0,0,0,0,0,0,0,0,-1.2444,-1.2444,0,-1.2477,-1.2477,-1.2478,-1.2453,-1.2452,-1.2451,-1.2449,-1.2484,-1.2486,-1.2488,0,0,0,0,0,0,0,0,0,0,0,0,0,-1.236,-1.2361,-1.2444,-1.2444,-1.2445,-1.2477,-1.2477,-1.2478,-1.2453,-1.2452,-1.245,-1.2449,-1.2483,-1.2485,-1.2488,0,0,0,0,0,0,0,0,0,0,0,0,0,-1.2395,-1.2362,-1.2444,-1.2436,-1.2436,-1.2477,-1.2477,-1.2478,-1.2453,-1.2452,-1.245,-1.2448,-1.2482,-1.2485,-1.2488,-1.2539,0,0,-1.2497,-1.2498,0,0,0,0,0,0,0,0,-1.2393,-1.2398,-1.2437,-1.2437,-1.2436,-1.2459,-1.246,-1.2498,-1.2454,-1.2447,-1.2449,-1.2448,-1.2477,-1.248,-1.249,-1.254,-1.2542,-1.2497,-1.2499,-1.25,-1.2501,0,0,0,0,0,0,0,-1.239,-1.2396,-1.2457,-1.2437,-1.2437,-1.2431,-1.2434,-1.2467,-1.247,-1.2447,-1.2445,-1.245,-1.2476,-1.2487,-1.2491,-1.2542,-1.2497,-1.25,-1.2501,-1.2503,-1.2637,-1.2639,0,0,0,0,0,0,-1.2389,-1.2394,-1.2456,-1.2458,-1.241,-1.2434,-1.2438,-1.2453,-1.247,-1.2471,-1.2451,-1.2448,-1.2483,-1.2487,-1.2492,-1.2553,-1.25,-1.2503,-1.2505,-1.2635,-1.2637,-1.2639,0,0,0,0,0,0,-1.2387,-1.2394,-1.2454,-1.2426,-1.2433,-1.2437,-1.2455,-1.2455,-1.2466,-1.2473,-1.2473,-1.2461,-1.2482,-1.2488,-1.2527,-1.2554,-1.2504,-1.2507,-1.2633,-1.2636,-1.2638,-1.2675,0,0,0,0,0,0,-1.2385,-1.2394,-1.2413,-1.2426,-1.2435,-1.2489,-1.2457,-1.2457,-1.2471,-1.2467,-1.2483,-1.2484,-1.2481,-1.2523,-1.253,-1.2557,-1.2509,-1.2631,-1.2634,-1.2637,-1.2672,-1.2679,-1.2685,0,0,0,0,0,-1.2382,-1.2422,-1.2414,-1.2421,-1.2458,-1.2491,-1.2496,-1.2492,-1.2473,-1.2492,-1.2497,-1.2483,-1.255,-1.2528,-1.2535,-1.2563,-1.2629,-1.2633,-1.2637,-1.2669,-1.2677,-1.2685,0,0,0,0,0,0,-1.2411,-1.2423,-1.2415,-1.246,-1.2475,-1.2487,-1.2511,-1.2501,-1.2521,-1.2517,-1.2512,-1.2515,-1.2557,-1.2564,-1.2539,-1.2613,-1.2586,-1.2592,-1.2608,-1.2616,-1.2623,-1.262,-1.2511,0,0,0,0,0,-1.2423,-1.2448,-1.2457,-1.2497,-1.2505,-1.2507,-1.2521,-1.2516,-1.2531,-1.2537,-1.2545,-1.256,-1.2584,-1.26,-1.2623,-1.2672,-1.2676,-1.2695,-1.2702,-1.2707,-1.2713,-1.2741,-1.275,-1.2653,-1.2653,-1.2653,0,0,-1.2448,-1.2457,-1.2474,-1.2503,-1.2514,-1.2541,-1.2512,-1.2541,-1.2561,-1.2542,-1.258,-1.2586,-1.2603,-1.2648,-1.2668,-1.2655,-1.274,-1.2713,-1.2717,-1.2719,-1.2746,-1.2755,-1.2763,-1.2656,-1.2655,-1.2655,0,0,-1.2506,-1.2516,-1.255,-1.2562,-1.2578,-1.258,-1.2588,-1.2602,-1.2605,-1.2643,-1.263,-1.2653,-1.2695,-1.2708,-1.2719,-1.2784,-1.2773,-1.2791,-1.2827,-1.2854,-1.2861,-1.2868,-1.2892,-1.2901,-1.2797,-1.2797,-1.2797,0,-1.2535,-1.2574,-1.2569,-1.26,-1.2614,-1.2597,-1.2632,-1.2644,-1.2667,-1.2677,-1.2662,-1.2714,-1.2724,-1.2773,-1.2789,-1.2798,-1.2808,-1.279,-1.2861,-1.2867,-1.2874,-1.2897,-1.2906,-1.2799,-1.2799,-1.2799,-1.2798,0,-1.2609,-1.2637,-1.2663,-1.2686,-1.2703,-1.2735,-1.2736,-1.2753,-1.2747,-1.275,-1.279,-1.2802,-1.2827,-1.2838,-1.2832,-1.2886,-1.2877,-1.2861,-1.2834,-1.2885,-1.2907,-1.2915,-1.2802,-1.2801,-1.2801,-1.28,0,0,-1.2688,-1.2708,-1.2718,-1.2728,-1.2746,-1.2768,-1.28,-1.2824,-1.284,-1.2857,-1.2884,-1.292,-1.2906,-1.292,-1.2916,-1.2939,-1.2991,-1.2921,-1.2921,-1.2934,-1.3052,-1.3065,-1.3075,-1.2983,-1.2985,-1.2986,-1.3051,0,-1.2748,-1.2804,-1.2801,-1.2854,-1.288,-1.2865,-1.2894,-1.2908,-1.2912,-1.2935,-1.2939,-1.2965,-1.2944,-1.2952,-1.2975,-1.298,-1.3015,-1.2975,-1.301,-1.3011,-1.3007,-1.3086,-1.3099,-1.3159,-1.3059,-1.3061,-1.3062,0,-1.2826,-1.2846,-1.2902,-1.2916,-1.2927,-1.2953,-1.2976,-1.2998,-1.3014,-1.3015,-1.303,-1.3023,-1.3056,-1.3028,-1.3074,-1.3047,-1.3061,-1.3066,-1.3068,-1.3072,-1.304,-1.3093,-1.3178,-1.3188,-1.3075,-1.3074,-1.3073,0,-1.2879,-1.292,-1.2959,-1.2968,-1.2986,-1.3004,-1.3012,-1.3027,-1.3042,-1.3062,-1.3072,-1.3096,-1.3109,-1.3128,-1.3127,-1.3106,-1.3175,-1.3146,-1.3177,-1.3177,-1.3193,-1.3192,-1.3283,-1.32,-1.32,-1.32,-1.32,0,-1.2947,-1.2982,-1.2983,-1.3007,-1.3046,-1.3042,-1.3081,-1.3087,-1.31,-1.3125,-1.3114,-1.3138,-1.3135,-1.3159,-1.3159,-1.3198,-1.3204,-1.3206,-1.3206,-1.3208,-1.3208,-1.3217,-1.3214,-1.3202,-1.3202,-1.3201,-1.3201,0,-1.3013,-1.3015,-1.3056,-1.307,-1.3074,-1.3103,-1.3114,-1.3137,-1.314,-1.3173,-1.318,-1.3185,-1.3213,-1.3214,-1.3246,-1.3246,-1.3294,-1.3289,-1.3289,-1.3288,-1.332,-1.3318,-1.3422,-1.3436,-1.3343,-1.3344,-1.3344,0,-1.3057,-1.3084,-1.31,-1.3117,-1.3126,-1.3152,-1.3168,-1.3165,-1.3182,-1.3203,-1.3224,-1.3251,-1.3273,-1.3319,-1.3326,-1.3351,-1.3346,-1.3381,-1.335,-1.3352,-1.3348,-1.3347,-1.335,-1.3387,-1.3388,-1.3389,-1.339,0,-1.3136,-1.3135,-1.3158,-1.3182,-1.3202,-1.322,-1.3238,-1.3252,-1.3251,-1.3271,-1.33,-1.3316,-1.335,-1.3378,-1.3402,-1.3411,-1.3401,-1.34,-1.3408,-1.3411,-1.3411,-1.3413,-1.3307,-1.3397,-1.3397,-1.3396,-1.3396,-1.3395,-1.3193,-1.3216,-1.3232,-1.3258,-1.3271,-1.3288,-1.3311,-1.3317,-1.3341,-1.3368,-1.3364,-1.3397,-1.3413,-1.3445,-1.3456,-1.3482,-1.347,-1.3482,-1.3486,-1.3489,-1.3493,-1.3406,-1.3486,-1.3486,-1.3485,-1.3485,-1.3485,0,-1.3271,-1.3281,-1.3305,-1.333,-1.3351,-1.334,-1.3358,-1.3377,-1.3406,-1.3422,-1.3443,-1.3477,-1.3504,-1.3513,-1.3539,-1.3558,-1.3555,-1.3566,-1.3565,-1.3567,-1.3502,-1.3492,-1.3568,-1.3568,-1.3568,-1.3568,-1.3568,-1.3568,-1.3315,-1.3354,-1.3356,-1.3402,-1.3411,-1.3443,-1.3455,-1.3471,-1.3483,-1.3522,-1.3544,-1.355,-1.3563,-1.359,-1.3615,-1.3617,-1.3628,-1.3641,-1.3641,-1.358,-1.3572,-1.3564,-1.3555,-1.3643,-1.3643,-1.3705,-1.3705,-1.3706]}]]